Location: Krakow
(50.0830°N, 19.9170°E)
Time: 09:50:06
(UTC+01:00)

Transit 2A - Pass Details

Date: 16 February 2023
Orbit: 591 x 964 km, 66.7° (Epoch: 21 March)

Event Time Altitude Azimuth Distance (km) Brightness Sun altitude
Rises 18:34:26 0° 311° (NW) 3,372 10.1 -15.8°
Reaches altitude 10° 18:37:49 10° 332° (NNW) 2,511 9.0 -16.3°
Maximum altitude 18:41:28 17° 11° (N) 2,138 8.2 -16.9°
Enters shadow 18:44:23 12° 42° (NE) 2,451 8.2 -17.4°
Drops below altitude 10° 18:45:18 10° 49° (NE) 2,638 - -17.5°
Sets 18:48:58 0° 70° (ENE) 3,623 - -18.1°
